Dickinson, ND

4:43 PM MDT on September 19, 2017 (GMT -0600)
Dickinson Municipal

Weather History for KDIK - October, 2014

Change the Weather History Date:

Wednesday, October 8, 2014

  Actual Average Record
Temperature  
Mean Temperature 43 °F 47 °F  
Max Temperature 53 °F 60 °F 87 °F (1980)
Min Temperature 33 °F 34 °F 9 °F (1895)
Degree Days  
Heating Degree Days 22 18  
Month to date heating degree days 157 131  
Since 1 July heating degree days 520 485  
Cooling Degree Days 0 0  
Month to date cooling degree days 0 0  
Year to date cooling degree days 256 418  
Moisture  
Dew Point 31 °F    
Average Humidity 65    
Maximum Humidity 82    
Minimum Humidity 48    
Precipitation  
Precipitation T in 0.05 in 0.85 in (1982)
Month to date precipitation T 0.38  
Year to date precipitation 21.13 14.14  
Sea Level Pressure  
Sea Level Pressure 30.08 in    
Wind  
Wind Speed 8 mph (East)    
Max Wind Speed 15 mph    
Max Gust Speed 19 mph    
Visibility 10 miles    
Events      
T = Trace of Precipitation, MM = Missing Value Source: NWS Daily Summary

Daily Weather History Graph

Daily Weather History Graph

Search for Another Location

Airport or City:

Trip Planner

Search our weather history database for the weather conditions in past years. The results will help you decide how hot, cold, wet, or windy it might be!

Date:

Astronomy

Oct. 08, 2014 Rise Set
Actual Time 6:59 AM MDT 6:17 PM MDT
Civil Twilight 6:29 AM MDT 6:47 PM MDT
Nautical Twilight 5:53 AM MDT 7:22 PM MDT
Astronomical Twilight 5:18 AM MDT 7:57 PM MDT
Moon 6:30 PM MDT (10/8) 7:09 AM MDT (10/8)
Length of Visible Light 12h 18m
Length of Day
11h 17m
Full, 100% of the Moon is Illuminated
Oct 8
Full
Oct 15
Last Quarter
Oct 23
New
Oct 30
First Quarter
Nov 6
Full

Hourly Weather History & Observations

Time (MDT) Temp. Windchill Dew Point Humidity Pressure Visibility Wind Dir Wind Speed Gust Speed Precip Events Conditions
12:56 AM 39.9 °F 33.9 °F 27.0 °F 60% 29.99 in 10.0 mi West 9.2 mph - N/A   Clear
1:56 AM 37.9 °F 32.7 °F 27.0 °F 65% 30.01 in 10.0 mi West 6.9 mph - N/A   Clear
2:56 AM 37.0 °F 30.4 °F 28.0 °F 70% 30.01 in 10.0 mi NNW 9.2 mph - N/A   Clear
3:56 AM 34.0 °F 27.2 °F 27.0 °F 75% 30.02 in 10.0 mi West 8.1 mph - N/A   Clear
4:56 AM 37.9 °F 33.5 °F 27.0 °F 65% 30.02 in 10.0 mi West 5.8 mph - N/A   Clear
5:56 AM 39.0 °F 36.8 °F 28.0 °F 65% 30.05 in 10.0 mi NNE 3.5 mph - N/A   Clear
6:56 AM 37.0 °F - 32.0 °F 82% 30.06 in 10.0 mi Calm Calm - N/A   Scattered Clouds
7:56 AM 39.9 °F 35.1 °F 30.9 °F 70% 30.09 in 10.0 mi ENE 6.9 mph - N/A   Partly Cloudy
8:56 AM 39.9 °F 33.4 °F 32.0 °F 73% 30.10 in 10.0 mi East 10.4 mph - N/A   Clear
9:56 AM 46.9 °F - 32.0 °F 56% 30.11 in 10.0 mi ESE 10.4 mph - N/A   Mostly Cloudy
10:56 AM 46.9 °F - 32.0 °F 56% 30.11 in 10.0 mi East 10.4 mph - N/A   Overcast
11:56 AM 48.0 °F - 30.9 °F 52% 30.09 in 10.0 mi ESE 12.7 mph - N/A   Overcast
12:56 PM 50.0 °F - 32.0 °F 50% 30.09 in 10.0 mi ESE 10.4 mph - N/A   Mostly Cloudy
1:56 PM 52.0 °F - 32.0 °F 47% 30.06 in 10.0 mi ESE 10.4 mph - N/A   Overcast
2:56 PM 52.0 °F - 32.0 °F 47% 30.06 in 10.0 mi ESE 12.7 mph - N/A   Mostly Cloudy
3:56 PM 52.0 °F - 33.1 °F 49% 30.06 in 10.0 mi SE 9.2 mph - N/A   Overcast
4:56 PM 50.0 °F - 33.1 °F 52% 30.07 in 10.0 mi East 9.2 mph - N/A   Scattered Clouds
5:56 PM 48.9 °F - 35.1 °F 59% 30.08 in 10.0 mi East 8.1 mph - N/A   Overcast
6:56 PM 48.0 °F - 32.0 °F 54% 30.11 in 10.0 mi East 8.1 mph - N/A   Mostly Cloudy
7:56 PM 46.9 °F - 30.9 °F 54% 30.12 in 10.0 mi East 8.1 mph - N/A   Overcast
8:56 PM 42.1 °F 37.1 °F 32.0 °F 67% 30.13 in 10.0 mi ESE 8.1 mph - 0.00 in   Overcast
9:56 PM 43.0 °F 40.3 °F 33.1 °F 68% 30.13 in 10.0 mi East 4.6 mph - N/A   Overcast
10:56 PM 43.0 °F 39.5 °F 34.0 °F 71% 30.15 in 10.0 mi East 5.8 mph - N/A   Overcast
11:56 PM 42.1 °F 36.6 °F 35.1 °F 76% 30.15 in 10.0 mi East 9.2 mph - N/A   Overcast